Location: Clyde
(45.1830°S, 169.3170°E)
Time: 02:20:25
(UTC+12:00)

Cosmos 2322 - Pass Details

Date: 24 January 2019
Orbit: 841 x 855 km, 71.0° (Epoch: 17 April)

Event Time Altitude Azimuth Distance (km) Brightness Sun altitude
Exits shadow 23:17:06 15° 356° (N) 2,118 5.4 -16.3°
Maximum altitude 23:21:39 56° 70° (ENE) 1,011 3.8 -16.8°
Drops below altitude 10° 23:27:15 10° 147° (SSE) 2,497 6.4 -17.4°
Sets 23:29:45 0° 150° (SSE) 3,437 7.2 -17.6°
